Bookmark and Share
Track history (hours):
 

Forseti

Last reported at 2014-Apr-24 08:25 UTC. Time now 2014-Apr-24 09:04 UTC.
Position N 53°54' E 011°28'.

Length 85 m; draft 3.8 m.

Type: Cargo ship. MMSI: 304010297.

NotesDate/timePositionNaut miles runAvg speedWind from/ knotsBaromVisibWave heightAir tempDewpointWater temp
2014-Apr-24 08:25N 53°54' E 011°28'0 0.0
2014-Apr-24 07:22N 53°54' E 011°28'0 0.0
2014-Apr-24 06:31N 53°54' E 011°28'0 0.0
2014-Apr-24 05:28N 53°54' E 011°28'0 0.0
2014-Apr-24 04:31N 53°54' E 011°28'0 0.0
2014-Apr-24 03:31N 53°54' E 011°28'0 0.0
2014-Apr-24 02:31N 53°54' E 011°28'0 0.0
2014-Apr-24 01:34N 53°54' E 011°28'0 0.0
2014-Apr-24 00:33N 53°54' E 011°28'0 0.0
2014-Apr-23 23:33N 53°54' E 011°28'0 0.0
2014-Apr-23 22:33N 53°54' E 011°28'0 0.0
2014-Apr-23 21:33N 53°54' E 011°28'0 0.0
2014-Apr-23 20:33N 53°54' E 011°28'0 0.0
2014-Apr-23 19:33N 53°54' E 011°28'0 0.0
2014-Apr-23 18:33N 53°54' E 011°28'0 0.0
2014-Apr-23 17:33N 53°54' E 011°28'0 0.0
2014-Apr-23 16:30N 53°54' E 011°28'0 0.0
2014-Apr-23 15:30N 53°54' E 011°28'0 0.0
2014-Apr-23 14:33N 53°54' E 011°28'0 0.0
2014-Apr-23 13:30N 53°54' E 011°28'0 0.0
2014-Apr-23 12:33N 53°54' E 011°28'0 0.0
2014-Apr-23 11:33N 53°54' E 011°28'0 0.0
2014-Apr-23 10:33N 53°54' E 011°28'0 0.0
2014-Apr-23 09:33N 53°54' E 011°28'0 0.0
2014-Apr-23 08:30N 53°54' E 011°28'0 0.0
2014-Apr-23 07:33N 53°54' E 011°28'0 0.0
2014-Apr-23 06:30N 53°54' E 011°28'0 0.0
2014-Apr-23 05:30N 53°54' E 011°28'3 3.0
2014-Apr-23 04:33N 53°56' E 011°25'6 5.6
2014-Apr-23 03:33N 54°02' E 011°24'7 7.1
2014-Apr-23 02:33N 54°09' E 011°25'8 7.5
2014-Apr-23 01:32N 54°17' E 011°23'8 7.7
2014-Apr-23 00:33N 54°24' E 011°23'8 7.5
2014-Apr-22 23:33N 54°32' E 011°19'8 7.7
2014-Apr-22 22:31N 54°36' E 011°08'  
2014-Apr-20 08:19N 57°08' E 010°46'7 8.9
2014-Apr-20 07:31N 57°14' E 010°42'8 8.5
2014-Apr-20 06:33N 57°23' E 010°42'9 8.5
2014-Apr-20 05:33N 57°31' E 010°43'8 8.5
2014-Apr-20 04:33N 57°40' E 010°44'7 7.1
2014-Apr-20 03:33N 57°46' E 010°39'9 8.9
2014-Apr-20 02:33N 57°46' E 010°23'9 8.6
2014-Apr-20 01:33N 57°43' E 010°07'87 3.1
2014-Apr-18 21:26N 56°41' E 008°14'0 0.0
2014-Apr-18 20:32N 56°41' E 008°14'0 0.0
2014-Apr-18 19:26N 56°41' E 008°14'0 0.0
2014-Apr-17 19:26N 56°41' E 008°14'0 0.0
2014-Apr-17 18:32N 56°41' E 008°14'57 5.0
2014-Apr-17 07:15N 55°50' E 007°30'811.1
2014-Apr-17 06:33N 55°42' E 007°25'1111.2
2014-Apr-17 05:33N 55°32' E 007°21'1111.4
2014-Apr-17 04:33N 55°20' E 007°23'1211.7
2014-Apr-17 03:33N 55°08' E 007°25'1211.9
2014-Apr-17 02:33N 54°57' E 007°27'1212.0
2014-Apr-17 01:33N 54°45' E 007°29'1211.9
2014-Apr-17 00:33N 54°33' E 007°31'1211.5
2014-Apr-16 23:33N 54°21' E 007°33'1010.3
2014-Apr-16 22:34N 54°12' E 007°42'10 9.7
2014-Apr-16 21:34N 54°06' E 007°54'10 9.8
2014-Apr-16 20:33N 54°01' E 008°09'1111.4
2014-Apr-16 19:34N 53°59' E 008°28'1312.9
2014-Apr-16 18:33N 53°51' E 008°46'1514.6
2014-Apr-16 17:34N 53°53' E 009°10'1312.6
2014-Apr-16 16:34N 53°44' E 009°26'1110.7
2014-Apr-16 15:34N 53°36' E 009°36'9 9.4
2014-Apr-16 14:34N 53°33' E 009°51'4 3.8
2014-Apr-16 13:29N 53°32' E 009°58'0 0.0
2014-Apr-16 12:32N 53°32' E 009°58'0 0.0
2014-Apr-16 11:32N 53°32' E 009°58'0 0.0
2014-Apr-16 10:31N 53°32' E 009°58'0 0.0
2014-Apr-16 09:22N 53°32' E 009°58'0 0.0
2014-Apr-16 08:31N 53°32' E 009°58'0 0.0
2014-Apr-16 07:31N 53°32' E 009°58'0 0.0
2014-Apr-16 06:22N 53°32' E 009°58'0 0.0
2014-Apr-16 05:28N 53°32' E 009°58'0 0.0
2014-Apr-16 04:28N 53°32' E 009°58'0 0.0
2014-Apr-16 03:31N 53°32' E 009°58'0 0.0
2014-Apr-16 02:28N 53°32' E 009°58'0 0.0
2014-Apr-16 01:28N 53°32' E 009°58'0 0.0
2014-Apr-16 00:28N 53°32' E 009°58'0 0.0
2014-Apr-15 23:28N 53°32' E 009°58'0 0.0
2014-Apr-15 22:31N 53°32' E 009°58'0 0.0
2014-Apr-15 21:28N 53°32' E 009°58'0 0.0
2014-Apr-15 20:31N 53°32' E 009°58'0 0.0
2014-Apr-15 19:28N 53°32' E 009°58'0 0.0
2014-Apr-15 18:28N 53°32' E 009°58'0 0.0
2014-Apr-15 17:28N 53°32' E 009°58'0 0.0
2014-Apr-15 16:28N 53°32' E 009°58'0 0.0
2014-Apr-15 15:28N 53°32' E 009°58'0 0.0
2014-Apr-15 14:28N 53°32' E 009°58'0 0.0
2014-Apr-15 11:31N 53°32' E 009°58'0 0.0
2014-Apr-15 10:31N 53°32' E 009°58'0 0.0
2014-Apr-15 09:31N 53°32' E 009°58'0 0.0
2014-Apr-15 08:31N 53°32' E 009°58'0 0.0
2014-Apr-15 07:31N 53°32' E 009°58'0 0.0
2014-Apr-15 06:31N 53°32' E 009°58'0 0.0
2014-Apr-15 05:31N 53°32' E 009°58'0 0.0
2014-Apr-15 03:34N 53°32' E 009°58'7 7.1
2014-Apr-15 02:34N 53°34' E 009°46'9 8.6
2014-Apr-15 01:34N 53°37' E 009°33'0 0.0
2014-Apr-15 00:33N 53°37' E 009°33'0 0.0
2014-Apr-14 23:33N 53°37' E 009°33'0 0.0
2014-Apr-14 22:33N 53°37' E 009°33'0 0.0
2014-Apr-14 21:33N 53°37' E 009°33'0 0.1
2014-Apr-14 20:33N 53°37' E 009°33'0 0.0
2014-Apr-14 19:33N 53°37' E 009°33'0 0.0
2014-Apr-14 18:33N 53°37' E 009°33'0 0.1
2014-Apr-14 17:33N 53°37' E 009°33'0 0.3
2014-Apr-14 16:29N 53°37' E 009°33'0 0.1
2014-Apr-14 14:29N 53°37' E 009°34'0 0.0
2014-Apr-14 13:29N 53°37' E 009°34'0 0.0
2014-Apr-14 11:32N 53°37' E 009°34'0 0.0
2014-Apr-14 10:32N 53°37' E 009°34'0 0.0
2014-Apr-14 09:32N 53°37' E 009°34'  

Dump ship's entire track history

sailing weather and tide predictions

Forseti — V2PV4 — position and weather